Lid_Strength_Index
3 2 3 3 4 3 4 4 3 3 4 3 3 3 4 4 3 2 2 2 2 3
5 5 5 4 4 4 4 2 2 3 3 3 2 2 2 2 2 2 3 3 3 3
5 5 4 4 4 5 4 4 3 3 3 2 2 2 2 3 2 3 2 2 2 2
5 5 5 5 5 5 4 4 3 3 3 3 3 2 2 2 2 2 3 3 3 2
6 6 6 6 6 5 5 4 3 3 3 3 3 3 2 3 3 3 2 2 2 2
4 4 4 4 3 3 4 4 4 4 4 3 3 4 4 3 3 3 3 3 3 3
6 6 6 6 5 5 4 4 4 4 3 3 3 3 2 3 4 5 4 4 4 4
6 6 6 6 5 5 5 4 4 4 4 4 3 3 5 5 6 6 5 5 4 3
6 6 7 7 7 6 6 6 6 6 5 6 3 6 6 6 7 7 6 6 5 4
6 6 7 7 7 8 8 8 8 8 7 7 7 6 7 6 8 8 7 7 6 6
7 8 8 9 9 10 10 10 10 9 9 9 8 7 8 7 8 8 8 8 8 8
8 9 10 11 11 11 11 11 11 10 11 12 11 10 10 10 11 10 10 10 9 9
10 11 12 12 12 12 13 12 12 12 12 11 11 11 10 10 10 11 10 10 10 9
12 13 13 14 13 13 12 12 12 12 11 11 10 9 9 10 9 10 10 10 9 9